| time (UTC) | temp F | wind direction | speed MPH | gust MPH | rain 1hr in | rain 24hr in | rain mn in | humidity % | barometer mb |
| 20260905102017 | 63 | 0 | 0.0 | 0.0 | 0.00 | 0.00 | 0.00 | 92 | 1012.9 |
| 20260905101534 | 63 | 0 | 0.0 | 0.0 | 0.00 | 0.00 | 0.00 | 91 | 1012.9 |
| 20260905101016 | 63 | 0 | 0.0 | 0.0 | 0.00 | 0.00 | 0.00 | 91 | 1013.0 |
| 20260905100516 | 63 | 0 | 0.0 | 0.0 | 0.00 | 0.00 | 0.00 | 91 | 1013.0 |
| 20260905100042 | 63 | 0 | 0.0 | 0.0 | 0.00 | 0.00 | 0.00 | 91 | 1013.1 |
| 20260905095517 | 63 | 0 | 0.0 | 0.0 | 0.00 | 0.00 | 0.00 | 91 | 1013.1 |
| 20260905095023 | 63 | 0 | 0.0 | 0.0 | 0.00 | 0.00 | 0.00 | 91 | 1013.0 |
| 20260905094536 | 63 | 0 | 0.0 | 0.0 | 0.00 | 0.00 | 0.00 | 91 | 1013.0 |
| 20260905094018 | 64 | 0 | 0.0 | 0.0 | 0.00 | 0.00 | 0.00 | 91 | 1013.0 |
| 20260905093518 | 64 | 0 | 0.0 | 0.0 | 0.00 | 0.00 | 0.00 | 91 | 1013.0 |
| 20260905093035 | 64 | 0 | 0.0 | 0.0 | 0.00 | 0.00 | 0.00 | 91 | 1013.0 |
| 20260905092517 | 64 | 0 | 0.0 | 0.0 | 0.00 | 0.00 | 0.00 | 91 | 1013.0 |
| 20260905092018 | 64 | 0 | 0.0 | 0.0 | 0.00 | 0.00 | 0.00 | 90 | 1013.1 |
| 20260905091536 | 64 | 0 | 0.0 | 0.0 | 0.00 | 0.00 | 0.00 | 91 | 1013.0 |
| 20260905091018 | 64 | 0 | 0.0 | 0.0 | 0.00 | 0.00 | 0.00 | 91 | 1013.0 |
| 20260905090515 | 64 | 0 | 0.0 | 0.0 | 0.00 | 0.00 | 0.00 | 90 | 1013.1 |
| 20260905090054 | 64 | 0 | 0.0 | 0.0 | 0.00 | 0.00 | 0.00 | 90 | 1013.2 |
| 20260905085520 | 64 | 0 | 0.0 | 0.0 | 0.00 | 0.00 | 0.00 | 90 | 1013.2 |
| 20260905085019 | 64 | 0 | 0.0 | 0.0 | 0.00 | 0.00 | 0.00 | 90 | 1013.2 |
| 20260905084535 | 65 | 0 | 0.0 | 0.0 | 0.00 | 0.00 | 0.00 | 90 | 1013.2 |
| 20260905084017 | 65 | 0 | 0.0 | 0.0 | 0.00 | 0.00 | 0.00 | 89 | 1013.2 |
| 20260905083518 | 65 | 0 | 0.0 | 0.0 | 0.00 | 0.00 | 0.00 | 89 | 1013.3 |
| 20260905083034 | 65 | 0 | 0.0 | 1.0 | 0.00 | 0.00 | 0.00 | 89 | 1013.3 |
| 20260905082518 | 65 | 0 | 0.0 | 1.0 | 0.00 | 0.00 | 0.00 | 89 | 1013.4 |
| 20260905082017 | 65 | 0 | 0.0 | 0.0 | 0.00 | 0.00 | 0.00 | 89 | 1013.4 |
| 20260905081536 | 65 | 0 | 0.0 | 0.0 | 0.00 | 0.00 | 0.00 | 89 | 1013.5 |
| 20260905081021 | 66 | 0 | 0.0 | 0.0 | 0.00 | 0.00 | 0.00 | 89 | 1013.5 |
| 20260905080520 | 66 | 0 | 0.0 | 0.0 | 0.00 | 0.00 | 0.00 | 89 | 1013.5 |
| 20260905080035 | 66 | 0 | 0.0 | 0.0 | 0.00 | 0.00 | 0.00 | 89 | 1013.6 |
| 20260905075519 | 66 | 0 | 0.0 | 0.0 | 0.00 | 0.00 | 0.00 | 89 | 1013.5 |
| 20260905075019 | 66 | 0 | 0.0 | 0.0 | 0.00 | 0.00 | 0.00 | 89 | 1013.5 |
| 20260905074536 | 67 | 0 | 0.0 | 0.0 | 0.00 | 0.00 | 0.00 | 89 | 1013.5 |
| 20260905074017 | 67 | 0 | 0.0 | 0.0 | 0.00 | 0.00 | 0.00 | 88 | 1013.5 |
| 20260905073523 | 67 | 0 | 0.0 | 2.0 | 0.00 | 0.00 | 0.00 | 89 | 1013.4 |
| 20260905073041 | 67 | 0 | 0.0 | 2.0 | 0.00 | 0.00 | 0.00 | 89 | 1013.3 |
| 20260905072518 | 67 | 184 | 0.0 | 3.0 | 0.00 | 0.00 | 0.00 | 89 | 1013.3 |
| 20260905072018 | 67 | 0 | 0.0 | 3.0 | 0.00 | 0.00 | 0.00 | 89 | 1013.4 |
| 20260905071536 | 67 | 180 | 1.0 | 3.0 | 0.00 | 0.00 | 0.00 | 89 | 1013.3 |
| 20260905071020 | 67 | 152 | 0.0 | 3.0 | 0.00 | 0.00 | 0.00 | 89 | 1013.2 |
| 20260905070517 | 68 | 0 | 0.0 | 2.0 | 0.00 | 0.00 | 0.00 | 89 | 1013.2 |
| 20260905070046 | 68 | 178 | 0.0 | 4.0 | 0.00 | 0.00 | 0.00 | 89 | 1013.2 |
| 20260905065520 | 68 | 0 | 0.0 | 6.0 | 0.00 | 0.00 | 0.00 | 89 | 1013.3 |
| 20260905065018 | 68 | 136 | 2.0 | 6.0 | 0.00 | 0.00 | 0.00 | 89 | 1013.2 |
| 20260905064537 | 68 | 180 | 1.0 | 4.0 | 0.00 | 0.00 | 0.00 | 89 | 1013.2 |
| 20260905064024 | 68 | 0 | 0.0 | 4.0 | 0.00 | 0.00 | 0.00 | 89 | 1013.3 |
| 20260905063516 | 68 | 212 | 1.0 | 4.0 | 0.00 | 0.00 | 0.00 | 89 | 1013.3 |
| 20260905063035 | 68 | 189 | 1.0 | 4.0 | 0.00 | 0.00 | 0.00 | 88 | 1013.3 |
| 20260905062517 | 68 | 223 | 1.0 | 4.0 | 0.00 | 0.00 | 0.00 | 88 | 1013.3 |
| 20260905062018 | 68 | 0 | 0.0 | 3.0 | 0.00 | 0.00 | 0.00 | 88 | 1013.3 |
| 20260905061541 | 68 | 0 | 1.0 | 4.0 | 0.00 | 0.00 | 0.00 | 88 | 1013.2 |
| 20260905061020 | 68 | 226 | 0.0 | 4.0 | 0.00 | 0.00 | 0.00 | 88 | 1013.2 |
| 20260905060519 | 68 | 218 | 1.0 | 4.0 | 0.00 | 0.00 | 0.00 | 88 | 1013.1 |
| 20260905060037 | 68 | 240 | 0.0 | 6.0 | 0.00 | 0.00 | 0.00 | 89 | 1013.1 |
| 20260905055524 | 69 | 251 | 2.0 | 6.0 | 0.00 | 0.00 | 0.00 | 89 | 1013.1 |
| 20260905055017 | 69 | 232 | 2.0 | 6.0 | 0.00 | 0.00 | 0.00 | 89 | 1013.0 |
| 20260905054538 | 69 | 240 | 3.0 | 6.0 | 0.00 | 0.00 | 0.00 | 90 | 1013.0 |
| 20260905054019 | 69 | 252 | 2.0 | 6.0 | 0.00 | 0.00 | 0.00 | 90 | 1013.1 |
| 20260905053522 | 69 | 228 | 2.0 | 8.0 | 0.00 | 0.00 | 0.00 | 89 | 1013.1 |
| 20260905053036 | 69 | 193 | 1.0 | 8.0 | 0.00 | 0.00 | 0.00 | 89 | 1013.2 |
| 20260905052519 | 69 | 194 | 2.0 | 8.0 | 0.00 | 0.00 | 0.00 | 90 | 1013.1 |
| 20260905052018 | 69 | 271 | 2.0 | 7.0 | 0.00 | 0.00 | 0.00 | 89 | 1013.2 |
| 20260905051537 | 69 | 240 | 1.0 | 6.0 | 0.00 | 0.00 | 0.00 | 89 | 1013.2 |
| 20260905051018 | 69 | 244 | 1.0 | 5.0 | 0.00 | 0.00 | 0.00 | 89 | 1013.2 |
| 20260905050519 | 69 | 0 | 2.0 | 8.0 | 0.00 | 0.00 | 0.00 | 89 | 1013.4 |
| 20260905050037 | 69 | 222 | 3.0 | 8.0 | 0.00 | 0.00 | 0.00 | 89 | 1013.3 |
| 20260905045518 | 69 | 225 | 2.0 | 8.0 | 0.00 | 0.00 | 0.00 | 89 | 1013.2 |
| 20260905045018 | 69 | 228 | 3.0 | 8.0 | 0.00 | 0.00 | 0.00 | 89 | 1013.1 |
| 20260905044536 | 69 | 262 | 2.0 | 8.0 | 0.00 | 0.00 | 0.00 | 89 | 1013.2 |
| 20260905044020 | 69 | 242 | 2.0 | 7.0 | 0.00 | 0.00 | 0.00 | 89 | 1013.1 |
| 20260905043519 | 69 | 216 | 2.0 | 7.0 | 0.00 | 0.00 | 0.00 | 89 | 1013.1 |
| 20260905043034 | 69 | 223 | 2.0 | 8.0 | 0.00 | 0.00 | 0.00 | 89 | 1013.1 |
| 20260905042522 | 69 | 198 | 2.0 | 8.0 | 0.00 | 0.00 | 0.00 | 89 | 1012.9 |
| 20260905042018 | 69 | 278 | 3.0 | 8.0 | 0.00 | 0.00 | 0.00 | 89 | 1012.9 |
| 20260905041549 | 69 | 242 | 3.0 | 8.0 | 0.00 | 0.00 | 0.00 | 89 | 1012.9 |
| 20260905041019 | 69 | 240 | 3.0 | 10.0 | 0.00 | 0.00 | 0.00 | 89 | 1012.8 |
| 20260905040521 | 70 | 269 | 2.0 | 10.0 | 0.00 | 0.00 | 0.00 | 88 | 1012.8 |
| 20260905040035 | 70 | 259 | 2.0 | 7.0 | 0.00 | 0.00 | 0.00 | 88 | 1012.7 |
| 20260905035520 | 70 | 261 | 2.0 | 7.0 | 0.00 | 0.00 | 0.00 | 88 | 1012.5 |
| 20260905035019 | 70 | 246 | 2.0 | 7.0 | 0.00 | 0.00 | 0.00 | 88 | 1012.5 |
| 20260905034541 | 70 | 259 | 2.0 | 9.0 | 0.00 | 0.00 | 0.00 | 87 | 1012.5 |
| 20260905034019 | 70 | 274 | 1.0 | 9.0 | 0.00 | 0.00 | 0.00 | 87 | 1012.5 |
| 20260905033518 | 70 | 243 | 1.0 | 7.0 | 0.00 | 0.00 | 0.00 | 87 | 1012.5 |
| 20260905033038 | 70 | 260 | 1.0 | 7.0 | 0.00 | 0.00 | 0.00 | 86 | 1012.4 |
| 20260905032516 | 70 | 242 | 2.0 | 6.0 | 0.00 | 0.00 | 0.00 | 86 | 1012.3 |
| 20260905032018 | 70 | 256 | 1.0 | 7.0 | 0.00 | 0.00 | 0.00 | 86 | 1012.3 |
| 20260905031536 | 70 | 265 | 1.0 | 7.0 | 0.00 | 0.00 | 0.00 | 86 | 1012.3 |
| 20260905031019 | 70 | 263 | 2.0 | 7.0 | 0.00 | 0.00 | 0.00 | 86 | 1012.4 |
| 20260905030519 | 70 | 275 | 3.0 | 8.0 | 0.00 | 0.00 | 0.00 | 86 | 1012.3 |
| 20260905030042 | 70 | 243 | 2.0 | 9.0 | 0.00 | 0.00 | 0.00 | 86 | 1012.2 |
| 20260905025518 | 70 | 282 | 3.0 | 9.0 | 0.00 | 0.00 | 0.00 | 86 | 1012.2 |
| 20260905025020 | 70 | 263 | 3.0 | 9.0 | 0.00 | 0.00 | 0.00 | 86 | 1012.1 |
| 20260905024539 | 70 | 253 | 4.0 | 9.0 | 0.00 | 0.00 | 0.00 | 85 | 1012.1 |
| 20260905024018 | 70 | 219 | 2.0 | 7.0 | 0.00 | 0.00 | 0.00 | 85 | 1012.1 |
| 20260905023518 | 70 | 264 | 1.0 | 8.0 | 0.00 | 0.00 | 0.00 | 85 | 1012.2 |
| 20260905023035 | 70 | 232 | 3.0 | 8.0 | 0.00 | 0.00 | 0.00 | 85 | 1012.2 |
| 20260905022516 | 70 | 270 | 2.0 | 9.0 | 0.00 | 0.00 | 0.00 | 85 | 1012.1 |
| 20260905022016 | 70 | 273 | 5.0 | 9.0 | 0.00 | 0.00 | 0.00 | 85 | 1012.1 |
| 20260905021537 | 71 | 265 | 4.0 | 9.0 | 0.00 | 0.00 | 0.00 | 84 | 1012.2 |
| 20260905021018 | 71 | 221 | 2.0 | 9.0 | 0.00 | 0.00 | 0.00 | 83 | 1012.3 |
| 20260905020521 | 71 | 263 | 3.0 | 9.0 | 0.00 | 0.00 | 0.00 | 83 | 1012.2 |
| 20260905020035 | 71 | 254 | 2.0 | 11.0 | 0.00 | 0.00 | 0.00 | 83 | 1012.2 |
| 20260905015523 | 71 | 265 | 2.0 | 11.0 | 0.00 | 0.00 | 0.00 | 82 | 1012.1 |
| 20260905015018 | 72 | 269 | 4.0 | 9.0 | 0.00 | 0.00 | 0.00 | 82 | 1012.2 |
| 20260905014535 | 72 | 258 | 3.0 | 9.0 | 0.00 | 0.00 | 0.00 | 82 | 1012.3 |
| 20260905014018 | 72 | 290 | 3.0 | 9.0 | 0.00 | 0.00 | 0.00 | 82 | 1012.2 |
| 20260905013522 | 72 | 229 | 4.0 | 11.0 | 0.00 | 0.00 | 0.00 | 81 | 1012.2 |
| 20260905013044 | 72 | 260 | 4.0 | 11.0 | 0.00 | 0.00 | 0.00 | 81 | 1012.2 |
| 20260905012518 | 72 | 265 | 3.0 | 10.0 | 0.00 | 0.00 | 0.00 | 81 | 1012.2 |
| 20260905012017 | 72 | 240 | 4.0 | 12.0 | 0.00 | 0.00 | 0.00 | 81 | 1012.2 |
| 20260905011540 | 73 | 266 | 4.0 | 12.0 | 0.00 | 0.00 | 0.00 | 80 | 1012.3 |
| 20260905011018 | 73 | 257 | 5.0 | 10.0 | 0.00 | 0.00 | 0.00 | 79 | 1012.3 |
| 20260905010520 | 73 | 248 | 4.0 | 10.0 | 0.00 | 0.00 | 0.00 | 79 | 1012.3 |
| 20260905010041 | 73 | 236 | 4.0 | 12.0 | 0.00 | 0.00 | 0.00 | 79 | 1012.3 |
| 20260905005520 | 74 | 236 | 5.0 | 12.0 | 0.00 | 0.00 | 0.00 | 78 | 1012.4 |
| 20260905005020 | 74 | 274 | 5.0 | 12.0 | 0.00 | 0.00 | 0.00 | 76 | 1012.4 |
| 20260905004554 | 75 | 279 | 2.0 | 11.0 | 0.00 | 0.00 | 0.00 | 77 | 1012.4 |
| 20260905004020 | 74 | 247 | 5.0 | 12.0 | 0.00 | 0.00 | 0.00 | 76 | 1012.4 |
| 20260905003521 | 75 | 277 | 3.0 | 12.0 | 0.00 | 0.00 | 0.00 | 77 | 1012.3 |
| 20260905003037 | 75 | 254 | 5.0 | 12.0 | 0.00 | 0.00 | 0.00 | 77 | 1012.4 |
| 20260905002519 | 74 | 267 | 4.0 | 10.0 | 0.00 | 0.00 | 0.00 | 77 | 1012.5 |
| 20260905002017 | 74 | 263 | 5.0 | 12.0 | 0.00 | 0.00 | 0.00 | 76 | 1012.5 |
| 20260905001535 | 75 | 247 | 5.0 | 12.0 | 0.00 | 0.00 | 0.00 | 75 | 1012.5 |
| 20260905001022 | 75 | 246 | 3.0 | 11.0 | 0.00 | 0.00 | 0.00 | 75 | 1012.4 |
| 20260905000519 | 75 | 192 | 4.0 | 12.0 | 0.00 | 0.00 | 0.00 | 76 | 1012.5 |
| 20260905000046 | 75 | 232 | 3.0 | 12.0 | 0.00 | 0.00 | 0.00 | 76 | 1012.5 |
| 20260904235520 | 75 | 259 | 5.0 | 14.0 | 0.00 | 0.00 | 0.00 | 76 | 1012.5 |
| 20260904235019 | 75 | 251 | 6.0 | 14.0 | 0.00 | 0.00 | 0.00 | 75 | 1012.5 |
| 20260904234535 | 75 | 227 | 6.0 | 14.0 | 0.00 | 0.00 | 0.00 | 75 | 1012.5 |
| 20260904234018 | 75 | 204 | 5.0 | 14.0 | 0.00 | 0.00 | 0.00 | 76 | 1012.5 |
| 20260904233518 | 75 | 242 | 5.0 | 14.0 | 0.00 | 0.00 | 0.00 | 76 | 1012.5 |
| 20260904233036 | 75 | 236 | 5.0 | 12.0 | 0.00 | 0.00 | 0.00 | 75 | 1012.4 |
| 20260904232518 | 75 | 225 | 6.0 | 14.0 | 0.00 | 0.00 | 0.00 | 75 | 1012.4 |
| 20260904232016 | 76 | 214 | 4.0 | 14.0 | 0.00 | 0.00 | 0.00 | 75 | 1012.5 |
| 20260904231539 | 76 | 225 | 6.0 | 14.0 | 0.00 | 0.00 | 0.00 | 75 | 1012.5 |
| 20260904231021 | 76 | 228 | 5.0 | 12.0 | 0.00 | 0.00 | 0.00 | 75 | 1012.5 |
| 20260904230520 | 76 | 192 | 6.0 | 13.0 | 0.00 | 0.00 | 0.00 | 75 | 1012.5 |
| 20260904230039 | 76 | 238 | 7.0 | 14.0 | 0.00 | 0.00 | 0.00 | 75 | 1012.5 |
| 20260904225518 | 76 | 293 | 6.0 | 16.0 | 0.00 | 0.00 | 0.00 | 74 | 1012.6 |
| 20260904225020 | 76 | 246 | 7.0 | 16.0 | 0.00 | 0.00 | 0.00 | 74 | 1012.5 |
| 20260904224538 | 76 | 242 | 6.0 | 15.0 | 0.00 | 0.00 | 0.00 | 72 | 1012.5 |
| 20260904224017 | 77 | 271 | 8.0 | 15.0 | 0.00 | 0.00 | 0.00 | 69 | 1012.4 |
| 20260904223519 | 77 | 235 | 6.0 | 15.0 | 0.00 | 0.00 | 0.00 | 68 | 1012.4 |
| 20260904223036 | 77 | 267 | 6.0 | 15.0 | 0.00 | 0.00 | 0.00 | 70 | 1012.4 |
| 20260904222518 | 77 | 234 | 7.0 | 15.0 | 0.00 | 0.00 | 0.00 | 69 | 1012.4 |
| 20260904222019 | 78 | 247 | 5.0 | 14.0 | 0.00 | 0.00 | 0.00 | 68 | 1012.5 |
| 20260904221538 | 78 | 274 | 8.0 | 14.0 | 0.00 | 0.00 | 0.00 | 68 | 1012.5 |
| 20260904221021 | 78 | 224 | 6.0 | 14.0 | 0.00 | 0.00 | 0.00 | 68 | 1012.6 |
| 20260904220519 | 78 | 254 | 5.0 | 14.0 | 0.00 | 0.00 | 0.00 | 68 | 1012.5 |
| 20260904220036 | 79 | 257 | 6.0 | 13.0 | 0.00 | 0.00 | 0.00 | 67 | 1012.5 |
| 20260904215521 | 79 | 240 | 7.0 | 15.0 | 0.00 | 0.00 | 0.00 | 66 | 1012.6 |
| 20260904215017 | 79 | 259 | 5.0 | 15.0 | 0.00 | 0.00 | 0.00 | 66 | 1012.6 |
| 20260904214534 | 79 | 232 | 5.0 | 15.0 | 0.00 | 0.00 | 0.00 | 65 | 1012.6 |
| 20260904214020 | 80 | 253 | 5.0 | 13.0 | 0.00 | 0.00 | 0.00 | 65 | 1012.7 |
| 20260904213516 | 80 | 233 | 3.0 | 9.0 | 0.00 | 0.00 | 0.00 | 64 | 1012.7 |
| 20260904213041 | 80 | 208 | 3.0 | 8.0 | 0.00 | 0.00 | 0.00 | 64 | 1012.7 |
| 20260904212518 | 80 | 288 | 3.0 | 10.0 | 0.00 | 0.00 | 0.00 | 64 | 1012.7 |
| 20260904212017 | 80 | 281 | 5.0 | 10.0 | 0.00 | 0.00 | 0.00 | 64 | 1012.6 |
| 20260904211542 | 80 | 243 | 4.0 | 10.0 | 0.00 | 0.00 | 0.00 | 63 | 1012.7 |
| 20260904211021 | 80 | 239 | 4.0 | 10.0 | 0.00 | 0.00 | 0.00 | 65 | 1012.7 |
| 20260904210521 | 80 | 237 | 4.0 | 12.0 | 0.00 | 0.00 | 0.00 | 64 | 1012.8 |
| 20260904210037 | 80 | 241 | 5.0 | 12.0 | 0.00 | 0.00 | 0.00 | 63 | 1012.8 |
| 20260904205521 | 81 | 242 | 4.0 | 12.0 | 0.00 | 0.00 | 0.00 | 62 | 1012.5 |
| 20260904205020 | 82 | 251 | 3.0 | 9.0 | 0.00 | 0.00 | 0.00 | 62 | 1012.7 |
| 20260904204536 | 82 | 235 | 1.0 | 6.0 | 0.00 | 0.00 | 0.00 | 58 | 1012.9 |
| 20260904204019 | 82 | 190 | 1.0 | 7.0 | 0.00 | 0.00 | 0.00 | 50 | 1012.9 |
| 20260904203519 | 82 | 138 | 3.0 | 8.0 | 0.00 | 0.00 | 0.00 | 53 | 1013.0 |
| 20260904203036 | 81 | 71 | 3.0 | 8.0 | 0.00 | 0.00 | 0.00 | 54 | 1012.9 |
| 20260904202522 | 81 | 61 | 3.0 | 9.0 | 0.00 | 0.00 | 0.00 | 56 | 1012.9 |
| 20260904202016 | 81 | 167 | 2.0 | 9.0 | 0.00 | 0.00 | 0.00 | 55 | 1013.0 |
| 20260904201539 | 81 | 83 | 3.0 | 9.0 | 0.00 | 0.00 | 0.00 | 56 | 1013.1 |
| 20260904201015 | 81 | 35 | 2.0 | 9.0 | 0.00 | 0.00 | 0.00 | 51 | 1013.1 |
| 20260904200519 | 80 | 132 | 3.0 | 9.0 | 0.00 | 0.00 | 0.00 | 57 | 1013.2 |
| 20260904200038 | 80 | 123 | 4.0 | 9.0 | 0.00 | 0.00 | 0.00 | 59 | 1013.2 |
| 20260904195524 | 80 | 24 | 3.0 | 8.0 | 0.00 | 0.00 | 0.00 | 59 | 1013.2 |
| 20260904195020 | 80 | 110 | 4.0 | 8.0 | 0.00 | 0.00 | 0.00 | 58 | 1013.3 |
| 20260904194538 | 80 | 108 | 2.0 | 8.0 | 0.00 | 0.00 | 0.00 | 59 | 1013.2 |
| 20260904194017 | 80 | 30 | 3.0 | 7.0 | 0.00 | 0.00 | 0.00 | 60 | 1013.2 |
| 20260904193517 | 80 | 215 | 1.0 | 8.0 | 0.00 | 0.00 | 0.00 | 58 | 1013.2 |
| 20260904193036 | 80 | 0 | 3.0 | 8.0 | 0.00 | 0.00 | 0.00 | 60 | 1013.3 |
| 20260904192519 | 80 | 79 | 1.0 | 8.0 | 0.00 | 0.00 | 0.00 | 61 | 1013.4 |
| 20260904192021 | 80 | 132 | 3.0 | 10.0 | 0.00 | 0.00 | 0.00 | 60 | 1013.4 |
| 20260904191539 | 79 | 101 | 4.0 | 10.0 | 0.00 | 0.00 | 0.00 | 62 | 1013.5 |
| 20260904191020 | 79 | 82 | 2.0 | 8.0 | 0.00 | 0.00 | 0.00 | 61 | 1013.6 |
| 20260904190522 | 79 | 66 | 4.0 | 9.0 | 0.00 | 0.00 | 0.00 | 62 | 1013.7 |
| 20260904190037 | 79 | 89 | 3.0 | 9.0 | 0.00 | 0.00 | 0.00 | 62 | 1013.8 |
| 20260904185517 | 79 | 104 | 3.0 | 9.0 | 0.00 | 0.00 | 0.00 | 63 | 1013.8 |
| 20260904185022 | 79 | 152 | 3.0 | 10.0 | 0.00 | 0.00 | 0.00 | 63 | 1014.0 |
| 20260904184537 | 79 | 113 | 4.0 | 10.0 | 0.00 | 0.00 | 0.00 | 64 | 1014.0 |
| 20260904184019 | 79 | 157 | 5.0 | 9.0 | 0.00 | 0.00 | 0.00 | 65 | 1013.9 |
| 20260904183517 | 79 | 236 | 3.0 | 9.0 | 0.00 | 0.00 | 0.00 | 65 | 1014.0 |
| 20260904183034 | 78 | 94 | 2.0 | 8.0 | 0.00 | 0.00 | 0.00 | 65 | 1013.9 |
| 20260904182520 | 78 | 86 | 4.0 | 8.0 | 0.00 | 0.00 | 0.00 | 65 | 1013.9 |
| 20260904182023 | 78 | 178 | 2.0 | 7.0 | 0.00 | 0.00 | 0.00 | 63 | 1013.9 |
| 20260904181538 | 78 | 157 | 2.0 | 9.0 | 0.00 | 0.00 | 0.00 | 66 | 1013.9 |
| 20260904181020 | 78 | 121 | 4.0 | 9.0 | 0.00 | 0.00 | 0.00 | 67 | 1014.0 |
| 20260904180526 | 77 | 0 | 1.0 | 7.0 | 0.00 | 0.00 | 0.00 | 67 | 1014.0 |
| 20260904180049 | 77 | 221 | 2.0 | 9.0 | 0.00 | 0.00 | 0.00 | 66 | 1014.0 |
| 20260904175519 | 77 | 123 | 4.0 | 9.0 | 0.00 | 0.00 | 0.00 | 67 | 1014.0 |
| 20260904175019 | 77 | 110 | 1.0 | 6.0 | 0.00 | 0.00 | 0.00 | 67 | 1014.1 |
| 20260904174542 | 77 | 0 | 0.0 | 7.0 | 0.00 | 0.00 | 0.00 | 68 | 1014.1 |
| 20260904174019 | 76 | 113 | 3.0 | 7.0 | 0.00 | 0.00 | 0.00 | 68 | 1014.1 |
| 20260904173519 | 76 | 159 | 2.0 | 6.0 | 0.00 | 0.00 | 0.00 | 68 | 1014.0 |
| 20260904173041 | 76 | 0 | 1.0 | 9.0 | 0.00 | 0.00 | 0.00 | 69 | 1014.0 |
| 20260904172518 | 75 | 103 | 1.0 | 9.0 | 0.00 | 0.00 | 0.00 | 71 | 1014.0 |
| 20260904172016 | 75 | 119 | 3.0 | 9.0 | 0.00 | 0.00 | 0.00 | 72 | 1014.0 |
| 20260904171607 | 75 | 159 | 1.0 | 9.0 | 0.00 | 0.00 | 0.00 | 72 | 1013.9 |
| 20260904171021 | 74 | 152 | 2.0 | 7.0 | 0.00 | 0.00 | 0.00 | 72 | 1013.9 |
| 20260904170522 | 74 | 128 | 2.0 | 8.0 | 0.00 | 0.00 | 0.00 | 74 | 1014.0 |
| 20260904170039 | 73 | 147 | 3.0 | 8.0 | 0.00 | 0.00 | 0.00 | 74 | 1013.9 |
| 20260904165518 | 73 | 88 | 1.0 | 8.0 | 0.00 | 0.00 | 0.00 | 73 | 1013.8 |
| 20260904165020 | 73 | 76 | 2.0 | 8.0 | 0.00 | 0.00 | 0.00 | 74 | 1013.7 |
| 20260904164537 | 73 | 142 | 3.0 | 8.0 | 0.00 | 0.00 | 0.00 | 74 | 1013.7 |
| 20260904164017 | 72 | 156 | 0.0 | 2.0 | 0.00 | 0.00 | 0.00 | 79 | 1013.5 |
| 20260904163519 | 72 | 76 | 0.0 | 2.0 | 0.00 | 0.00 | 0.00 | 79 | 1013.5 |
| 20260904163037 | 72 | 0 | 0.0 | 3.0 | 0.00 | 0.00 | 0.00 | 79 | 1013.5 |
| 20260904162518 | 72 | 0 | 0.0 | 3.0 | 0.00 | 0.00 | 0.00 | 79 | 1013.5 |
| 20260904162021 | 72 | 0 | 0.0 | 2.0 | 0.00 | 0.00 | 0.00 | 80 | 1013.5 |
| 20260904161552 | 71 | 0 | 0.0 | 2.0 | 0.00 | 0.00 | 0.00 | 81 | 1013.5 |
| 20260904161020 | 71 | 0 | 0.0 | 2.0 | 0.00 | 0.00 | 0.00 | 82 | 1013.4 |
| 20260904160520 | 71 | 0 | 0.0 | 2.0 | 0.00 | 0.00 | 0.00 | 81 | 1013.4 |
| 20260904160039 | 71 | 76 | 0.0 | 2.0 | 0.00 | 0.00 | 0.00 | 81 | 1013.4 |
| 20260904155524 | 71 | 0 | 0.0 | 3.0 | 0.00 | 0.00 | 0.00 | 82 | 1013.3 |
| 20260904155021 | 70 | 0 | 0.0 | 3.0 | 0.00 | 0.00 | 0.00 | 83 | 1013.3 |
| 20260904154542 | 70 | 76 | 0.0 | 3.0 | 0.00 | 0.00 | 0.00 | 83 | 1013.3 |
| 20260904154020 | 70 | 0 | 0.0 | 4.0 | 0.00 | 0.00 | 0.00 | 83 | 1013.3 |
| 20260904153517 | 70 | 127 | 0.0 | 4.0 | 0.00 | 0.00 | 0.00 | 84 | 1013.4 |
| 20260904153051 | 70 | 0 | 0.0 | 4.0 | 0.00 | 0.00 | 0.00 | 84 | 1013.4 |
| 20260904152516 | 70 | 0 | 0.0 | 2.0 | 0.00 | 0.00 | 0.00 | 85 | 1013.4 |
| 20260904152020 | 69 | 0 | 0.0 | 2.0 | 0.00 | 0.00 | 0.00 | 86 | 1013.3 |
| 20260904151539 | 68 | 109 | 0.0 | 2.0 | 0.00 | 0.00 | 0.00 | 87 | 1013.4 |
| 20260904151024 | 68 | 109 | 0.0 | 3.0 | 0.00 | 0.00 | 0.00 | 87 | 1013.4 |
| 20260904150520 | 67 | 0 | 0.0 | 3.0 | 0.00 | 0.00 | 0.00 | 88 | 1013.3 |
| 20260904150035 | 67 | 75 | 1.0 | 4.0 | 0.00 | 0.00 | 0.00 | 89 | 1013.3 |
| 20260904145520 | 67 | 89 | 1.0 | 4.0 | 0.00 | 0.00 | 0.00 | 89 | 1013.2 |
| 20260904145020 | 66 | 113 | 1.0 | 3.0 | 0.00 | 0.00 | 0.00 | 89 | 1013.2 |
| 20260904144537 | 66 | 82 | 1.0 | 3.0 | 0.00 | 0.00 | 0.00 | 91 | 1013.1 |
| 20260904144023 | 65 | 0 | 0.0 | 2.0 | 0.00 | 0.00 | 0.00 | 92 | 1013.1 |
| 20260904143518 | 64 | 0 | 0.0 | 1.0 | 0.00 | 0.00 | 0.00 | 92 | 1013.0 |
| 20260904143039 | 64 | 0 | 0.0 | 1.0 | 0.00 | 0.00 | 0.00 | 93 | 1013.0 |
| 20260904142519 | 63 | 0 | 0.0 | 1.0 | 0.00 | 0.00 | 0.00 | 94 | 1013.0 |
| 20260904142019 | 63 | 0 | 0.0 | 0.0 | 0.00 | 0.00 | 0.00 | 95 | 1012.9 |
| 20260904141536 | 62 | 0 | 0.0 | 0.0 | 0.00 | 0.00 | 0.00 | 94 | 1012.7 |
| 20260904141018 | 62 | 0 | 0.0 | 1.0 | 0.00 | 0.00 | 0.00 | 93 | 1012.8 |
| 20260904140519 | 62 | 0 | 0.0 | 1.0 | 0.00 | 0.00 | 0.00 | 93 | 1012.7 |
| 20260904140040 | 61 | 0 | 0.0 | 0.0 | 0.00 | 0.00 | 0.00 | 93 | 1012.7 |
| 20260904135527 | 61 | 0 | 0.0 | 0.0 | 0.00 | 0.00 | 0.00 | 93 | 1012.6 |
| 20260904135020 | 61 | 0 | 0.0 | 0.0 | 0.00 | 0.00 | 0.00 | 93 | 1012.6 |
| 20260904134548 | 61 | 0 | 0.0 | 0.0 | 0.00 | 0.00 | 0.00 | 93 | 1012.6 |
| 20260904134019 | 61 | 0 | 0.0 | 0.0 | 0.00 | 0.00 | 0.00 | 93 | 1012.5 |
| 20260904133521 | 61 | 0 | 0.0 | 0.0 | 0.00 | 0.00 | 0.00 | 93 | 1012.5 |
| 20260904133055 | 61 | 0 | 0.0 | 0.0 | 0.00 | 0.00 | 0.00 | 93 | 1012.5 |
| 20260904132520 | 61 | 0 | 0.0 | 0.0 | 0.00 | 0.00 | 0.00 | 93 | 1012.5 |
| 20260904132019 | 61 | 0 | 0.0 | 0.0 | 0.00 | 0.00 | 0.00 | 93 | 1012.6 |
| 20260904131535 | 61 | 0 | 0.0 | 0.0 | 0.00 | 0.00 | 0.00 | 93 | 1012.5 |
| 20260904131019 | 61 | 0 | 0.0 | 0.0 | 0.00 | 0.00 | 0.00 | 93 | 1012.4 |
| 20260904130522 | 61 | 0 | 0.0 | 0.0 | 0.00 | 0.00 | 0.00 | 93 | 1012.4 |
| 20260904130038 | 61 | 0 | 0.0 | 0.0 | 0.00 | 0.00 | 0.00 | 93 | 1012.3 |
| 20260904125521 | 60 | 0 | 0.0 | 0.0 | 0.00 | 0.00 | 0.00 | 92 | 1012.4 |
| 20260904125018 | 60 | 0 | 0.0 | 0.0 | 0.00 | 0.00 | 0.00 | 92 | 1012.2 |
| 20260904124535 | 60 | 0 | 0.0 | 0.0 | 0.00 | 0.00 | 0.00 | 92 | 1012.3 |
| 20260904124017 | 60 | 0 | 0.0 | 0.0 | 0.00 | 0.00 | 0.00 | 92 | 1012.2 |
| 20260904123519 | 60 | 0 | 0.0 | 0.0 | 0.00 | 0.00 | 0.00 | 92 | 1012.3 |
| 20260904123036 | 60 | 0 | 0.0 | 0.0 | 0.00 | 0.00 | 0.00 | 92 | 1012.2 |
| 20260904122518 | 61 | 0 | 0.0 | 0.0 | 0.00 | 0.00 | 0.00 | 92 | 1012.2 |
| 20260904122018 | 61 | 0 | 0.0 | 0.0 | 0.00 | 0.00 | 0.00 | 92 | 1012.1 |
| 20260904121535 | 61 | 0 | 0.0 | 1.0 | 0.00 | 0.00 | 0.00 | 92 | 1012.1 |
| 20260904121020 | 61 | 0 | 0.0 | 1.0 | 0.00 | 0.00 | 0.00 | 92 | 1012.1 |
| 20260904120516 | 61 | 0 | 0.0 | 1.0 | 0.00 | 0.00 | 0.00 | 92 | 1012.1 |
| 20260904120051 | 60 | 0 | 0.0 | 0.0 | 0.00 | 0.00 | 0.00 | 91 | 1012.1 |
| 20260904115515 | 61 | 0 | 0.0 | 0.0 | 0.00 | 0.00 | 0.00 | 91 | 1012.1 |
| 20260904115018 | 61 | 0 | 0.0 | 0.0 | 0.00 | 0.00 | 0.00 | 91 | 1012.1 |
| 20260904114538 | 61 | 0 | 0.0 | 0.0 | 0.00 | 0.00 | 0.00 | 91 | 1012.2 |
| 20260904114021 | 61 | 0 | 0.0 | 0.0 | 0.00 | 0.00 | 0.00 | 91 | 1012.1 |
| 20260904113522 | 61 | 0 | 0.0 | 0.0 | 0.00 | 0.00 | 0.00 | 91 | 1012.2 |
| 20260904113038 | 61 | 0 | 0.0 | 0.0 | 0.00 | 0.00 | 0.00 | 91 | 1012.2 |
| 20260904112520 | 61 | 0 | 0.0 | 0.0 | 0.00 | 0.00 | 0.00 | 91 | 1012.1 |
| 20260904112018 | 61 | 0 | 0.0 | 0.0 | 0.00 | 0.00 | 0.00 | 91 | 1012.1 |
| 20260904111535 | 61 | 0 | 0.0 | 0.0 | 0.00 | 0.00 | 0.00 | 91 | 1012.1 |
| 20260904111018 | 61 | 0 | 0.0 | 0.0 | 0.00 | 0.00 | 0.00 | 91 | 1012.1 |
| 20260904110518 | 62 | 0 | 0.0 | 0.0 | 0.00 | 0.00 | 0.00 | 91 | 1012.1 |
| 20260904110037 | 61 | 0 | 0.0 | 0.0 | 0.00 | 0.00 | 0.00 | 91 | 1012.1 |
| 20260904105523 | 61 | 0 | 0.0 | 0.0 | 0.00 | 0.00 | 0.00 | 90 | 1012.1 |
| 20260904105021 | 62 | 0 | 0.0 | 0.0 | 0.00 | 0.00 | 0.00 | 90 | 1012.1 |
| 20260904104601 | 62 | 0 | 0.0 | 0.0 | 0.00 | 0.00 | 0.00 | 90 | 1012.1 |
| 20260904104020 | 62 | 0 | 0.0 | 0.0 | 0.00 | 0.00 | 0.00 | 90 | 1012.0 |
| 20260904103517 | 62 | 0 | 0.0 | 0.0 | 0.00 | 0.00 | 0.00 | 90 | 1012.1 |
| 20260904103037 | 62 | 0 | 0.0 | 0.0 | 0.00 | 0.00 | 0.00 | 90 | 1012.0 |
| 20260904102518 | 62 | 0 | 0.0 | 0.0 | 0.00 | 0.00 | 0.00 | 90 | 1012.0 |